Location: Allos
(44.2333°N, 6.6333°E)
Time: 05:10:26
(UTC+00:00)

Lacrosse 4 Rocket - Pass Details

Date: 01 December 2020
Orbit: 537 x 620 km, 68.0° (Epoch: 24 January)

Event Time Altitude Azimuth Distance (km) Brightness Sun altitude
Rises 17:43:06 0° 178° (S) 2,677 5.0 -18.6°
Reaches altitude 10° 17:45:32 10° 165° (SSE) 1,796 3.9 -19.1°
Enters shadow 17:47:05 18° 147° (SSE) 1,348 3.1 -19.3°
